Time,TemperatureF,DewpointF,PressureIn,WindDirection,WindDirectionDegrees,WindSpeedMPH,WindSpeedGustMPH,Humidity,HourlyPrecipIn,Conditions,Clouds,dailyrainin,SoftwareType,DateUTC
2013-07-25 00:00:00,61.0,-99.9,30.05,SSW,200,6.0,-999.0,-999,-99.99,,,-99.99,,2013-07-25 04:00:00,
2013-07-25 00:43:00,61.0,-99.9,30.05,SSW,200,6.0,-999.0,-999,-99.99,,,-99.99,,2013-07-25 04:43:00,
2013-07-25 00:53:00,61.0,-99.9,30.05,SSW,200,6.0,-999.0,-999,-99.99,,,-99.99,,2013-07-25 04:53:00,
2013-07-25 01:00:00,58.0,-99.9,30.06,SW,220,2.0,-999.0,-999,-99.99,,,-99.99,,2013-07-25 05:00:00,
2013-07-25 01:43:00,58.0,-99.9,30.06,SW,220,2.0,-999.0,-999,-99.99,,,-99.99,,2013-07-25 05:43:00,
2013-07-25 01:52:00,58.0,-99.9,30.06,SW,220,2.0,-999.0,-999,-99.99,,,-99.99,,2013-07-25 05:52:00,
2013-07-25 06:00:00,61.0,-99.9,30.05,ESE,120,7.0,-999.0,-999,-99.99,,,-99.99,,2013-07-25 10:00:00,
2013-07-25 06:43:00,61.0,-99.9,30.05,ESE,120,7.0,-999.0,-999,-99.99,,,-99.99,,2013-07-25 10:43:00,
2013-07-25 06:53:00,61.0,-99.9,30.05,ESE,120,7.0,-999.0,-999,-99.99,,,-99.99,,2013-07-25 10:53:00,
2013-07-25 07:00:00,61.0,-99.9,30.06,SE,130,10.0,-999.0,-999,-99.99,,,-99.99,,2013-07-25 11:00:00,
2013-07-25 07:43:00,61.0,-99.9,30.06,SE,130,10.0,-999.0,-999,-99.99,,,-99.99,,2013-07-25 11:43:00,
2013-07-25 07:53:00,61.0,-99.9,30.06,SE,130,10.0,-999.0,-999,-99.99,,,-99.99,,2013-07-25 11:53:00,
2013-07-25 08:00:00,60.0,-99.9,30.07,SSE,150,9.0,-999.0,-999,-99.99,,,-99.99,,2013-07-25 12:00:00,
2013-07-25 08:45:00,60.0,-99.9,30.07,SSE,150,9.0,-999.0,-999,-99.99,,,-99.99,,2013-07-25 12:45:00,
2013-07-25 08:53:00,60.0,-99.9,30.07,SSE,150,9.0,-999.0,-999,-99.99,,,-99.99,,2013-07-25 12:53:00,
2013-07-25 09:00:00,61.0,-99.9,30.09,South,180,8.0,-999.0,-999,-99.99,,,-99.99,,2013-07-25 13:00:00,
2013-07-25 09:43:00,61.0,-99.9,30.09,South,180,8.0,-999.0,-999,-99.99,,,-99.99,,2013-07-25 13:43:00,
2013-07-25 09:53:00,61.0,-99.9,30.09,South,180,8.0,-999.0,-999,-99.99,,,-99.99,,2013-07-25 13:53:00,
2013-07-25 12:00:00,61.0,-99.9,30.10,South,170,13.0,-999.0,-999,-99.99,,,-99.99,,2013-07-25 16:00:00,
2013-07-25 12:45:00,61.0,-99.9,30.10,South,170,13.0,-999.0,-999,-99.99,,,-99.99,,2013-07-25 16:45:00,
2013-07-25 12:53:00,61.0,-99.9,30.10,South,170,13.0,-999.0,-999,-99.99,,,-99.99,,2013-07-25 16:53:00,
2013-07-25 13:00:00,63.0,-99.9,30.11,SSE,150,14.0,-999.0,-999,-99.99,,,-99.99,,2013-07-25 17:00:00,
2013-07-25 13:43:00,63.0,-99.9,30.11,SSE,150,14.0,-999.0,-999,-99.99,,,-99.99,,2013-07-25 17:43:00,
2013-07-25 13:53:00,63.0,-99.9,30.11,SSE,150,14.0,-999.0,-999,-99.99,,,-99.99,,2013-07-25 17:53:00,
2013-07-25 19:00:00,67.0,-99.9,30.10,North,10,6.0,-999.0,-999,-99.99,,,-99.99,,2013-07-25 23:00:00,
2013-07-25 19:52:00,67.0,-99.9,30.10,North,10,6.0,-999.0,-999,-99.99,,,-99.99,,2013-07-25 23:52:00,